Location: Alice Springs
(23.6980°S, 133.8807°E)
Time: 13:26:41
(UTC+09:30)

N. Korean satellite - Visible Passes

Search period start: 17 June 2021 00:00
Search period end: 27 June 2021 00:00
Orbit: 450 x 500 km, 97.2° (Epoch: 16 June)

Date Brightness Start Highest point End Pass type
(mag) Time Alt. Az. Time Alt. Az. Time Alt. Az.
17 Jun 9.7 04:42:58 10° NE 04:43:45 14° ENE 04:43:45 14° ENE visible
17 Jun 8.8 06:17:26 10° WNW 06:17:55 11° WNW 06:17:55 11° WNW visible
18 Jun 8.1 05:48:27 10° NNW 05:50:21 23° NW 05:50:21 23° NW visible
19 Jun 8.1 05:20:49 10° N 05:22:47 31° N 05:22:47 31° N visible
19 Jun 9.3 18:29:34 10° SSW 18:31:58 18° WSW 18:34:19 10° WNW visible
20 Jun 9.2 04:53:57 10° NE 04:55:12 19° NE 04:55:12 19° NE visible
21 Jun 8.4 06:00:20 10° NNW 06:01:47 17° NW 06:01:47 17° NW visible
22 Jun 8.0 05:32:16 10° N 05:34:12 28° NNW 05:34:12 28° NNW visible
22 Jun 9.6 18:41:53 10° SW 18:43:14 12° WSW 18:44:34 10° W visible
23 Jun 8.8 05:05:04 10° NNE 05:06:36 23° NE 05:06:36 23° NE visible
24 Jun 9.9 04:38:44 10° ENE 04:39:00 11° ENE 04:39:00 11° ENE visible
24 Jun 8.8 06:12:31 10° NW 06:13:10 12° WNW 06:13:10 12° WNW visible
25 Jun 8.2 05:43:50 10° NNW 05:45:33 23° NNW 05:45:33 23° NNW visible
26 Jun 8.4 05:16:17 10° NNE 05:17:57 26° NNE 05:17:57 26° NNE visible
26 Jun 9.2 18:24:46 10° SSW 18:27:21 20° WSW 18:29:55 10° WNW visible
